Total_Precipitation_Accumulation
0.00 0.01 0.02 0.02 0.02 0.03 0.05 0.07 0.11 0.15 0.14 0.17 0.33 0.51 0.54 0.70 0.97 1.24 1.54 1.82 2.16 2.46 2.88 3.33 3.39 3.58 3.87 4.42 4.74 4.81 4.94 4.83 4.55 4.13 3.69 3.48 3.37 3.32 3.12 2.86 2.63 2.55 2.50 2.60
0.01 0.03 0.01 0.01 0.02 0.03 0.06 0.09 0.13 0.15 0.14 0.15 0.30 0.49 0.60 0.93 1.21 1.26 1.39 1.54 1.75 2.18 2.58 2.91 3.06 3.11 3.46 4.02 4.43 4.56 4.32 4.19 4.05 3.77 3.62 3.58 3.73 3.42 3.09 2.88 2.63 2.46 2.44 2.53
0.03 0.03 0.02 0.02 0.02 0.03 0.05 0.06 0.11 0.16 0.15 0.20 0.31 0.61 0.81 1.05 1.18 1.21 1.28 1.39 1.54 1.89 2.21 2.51 2.59 2.69 2.90 3.02 3.25 3.42 3.58 3.47 3.36 3.31 3.27 3.30 3.45 3.17 2.84 2.63 2.50 2.30 2.20 2.16
0.03 0.03 0.03 0.04 0.04 0.04 0.06 0.07 0.06 0.08 0.15 0.27 0.41 0.92 1.15 1.07 1.12 1.26 1.28 1.31 1.53 1.86 1.83 1.92 2.10 2.28 2.56 2.66 2.82 2.88 2.92 3.01 3.00 3.03 2.89 2.71 2.60 2.45 2.31 2.30 2.25 2.24 2.14 2.03
0.05 0.04 0.03 0.05 0.05 0.04 0.05 0.05 0.06 0.09 0.18 0.29 0.41 0.71 1.09 1.41 1.46 1.25 1.19 1.14 1.35 1.51 1.42 1.41 1.57 1.71 1.91 2.05 2.28 2.44 2.53 2.59 2.67 2.67 2.54 2.51 2.30 2.25 2.25 2.20 2.16 2.09 2.02 1.97
0.05 0.05 0.04 0.04 0.04 0.04 0.04 0.06 0.12 0.23 0.41 0.64 0.54 0.66 1.05 1.40 1.63 1.33 1.16 1.10 1.20 1.17 1.16 1.28 1.38 1.43 1.56 1.77 1.95 2.09 2.21 2.23 2.33 2.37 2.34 2.28 2.20 2.17 2.09 2.01 1.97 1.94 1.93 1.81
0.12 0.12 0.10 0.06 0.05 0.06 0.06 0.13 0.45 0.81 1.10 1.12 0.72 0.75 1.11 1.12 1.13 1.13 1.10 1.14 1.13 1.04 0.98 1.00 1.08 1.21 1.36 1.55 1.66 1.72 1.84 1.91 1.91 1.93 1.96 1.91 1.95 2.01 1.84 1.71 1.70 1.66 1.52 1.40
0.17 0.24 0.15 0.09 0.09 0.09 0.10 0.15 0.50 0.76 0.82 0.92 0.80 1.07 1.40 1.10 1.01 0.95 1.01 1.09 1.05 0.90 0.84 0.85 0.96 1.01 1.08 1.22 1.37 1.44 1.57 1.66 1.77 1.78 1.75 1.70 1.68 1.66 1.50 1.53 1.48 1.41 1.23 1.15
0.10 0.11 0.08 0.08 0.09 0.11 0.15 0.17 0.23 0.43 0.48 0.69 0.89 1.17 1.33 1.01 0.97 1.06 1.16 1.15 1.07 0.85 0.70 0.67 0.74 0.80 0.79 0.84 0.96 1.12 1.40 1.53 1.61 1.64 1.59 1.47 1.42 1.39 1.34 1.39 1.45 1.35 1.29 1.19
0.06 0.05 0.06 0.07 0.09 0.12 0.15 0.15 0.19 0.36 0.52 0.72 0.85 1.20 1.47 1.32 1.26 1.24 1.29 1.10 0.81 0.65 0.54 0.51 0.54 0.55 0.58 0.63 0.75 0.89 1.07 1.17 1.26 1.37 1.39 1.18 1.24 1.31 1.28 1.27 1.22 1.23 1.24 1.23
0.05 0.04 0.06 0.09 0.12 0.14 0.19 0.21 0.28 0.39 0.42 0.64 0.98 1.17 1.10 1.10 1.11 1.17 1.14 0.93 0.67 0.55 0.46 0.46 0.48 0.52 0.54 0.57 0.68 0.81 0.96 1.07 1.10 1.16 1.22 1.15 1.13 1.19 1.22 1.19 1.14 1.14 1.15 1.18
0.07 0.06 0.10 0.16 0.18 0.17 0.17 0.19 0.28 0.42 0.41 0.45 0.69 0.88 0.61 0.63 0.70 0.78 0.80 0.67 0.55 0.53 0.50 0.53 0.55 0.57 0.57 0.65 0.73 0.80 0.90 1.01 1.05 1.16 1.27 1.31 1.25 1.20 1.20 1.16 1.06 1.01 0.98 1.00
0.11 0.11 0.17 0.38 0.48 0.30 0.19 0.17 0.19 0.24 0.27 0.29 0.51 0.68 0.47 0.52 0.62 0.74 0.80 0.81 0.76 0.67 0.52 0.50 0.57 0.63 0.63 0.72 0.82 0.89 1.00 1.04 1.08 1.23 1.39 1.47 1.33 1.21 1.23 1.17 1.03 0.94 0.90 0.90
0.11 0.15 0.19 0.40 0.52 0.40 0.30 0.23 0.19 0.22 0.31 0.28 0.31 0.46 0.47 0.53 0.61 0.69 0.75 0.78 0.71 0.62 0.51 0.48 0.53 0.59 0.67 0.75 0.80 0.82 0.84 0.92 1.02 1.06 1.22 1.36 1.32 1.17 1.06 1.02 1.00 0.98 0.96 0.93
0.09 0.12 0.12 0.16 0.23 0.30 0.32 0.27 0.21 0.18 0.21 0.34 0.32 0.36 0.45 0.54 0.54 0.63 0.68 0.62 0.62 0.56 0.55 0.55 0.57 0.61 0.65 0.68 0.66 0.63 0.59 0.66 0.76 0.84 0.93 1.05 1.03 1.00 0.96 0.90 0.83 0.86 0.91 0.88
0.16 0.17 0.16 0.15 0.18 0.22 0.25 0.25 0.18 0.14 0.12 0.15 0.27 0.44 0.47 0.49 0.53 0.55 0.56 0.59 0.61 0.67 0.71 0.72 0.71 0.74 0.66 0.63 0.59 0.54 0.52 0.56 0.69 0.79 0.83 0.91 0.98 0.90 0.82 0.80 0.74 0.74 0.80 0.87
0.34 0.30 0.27 0.24 0.21 0.26 0.31 0.25 0.19 0.14 0.12 0.14 0.30 0.55 0.51 0.50 0.54 0.59 0.66 0.73 0.63 0.61 0.64 0.70 0.68 0.67 0.56 0.54 0.53 0.53 0.56 0.56 0.61 0.71 0.84 0.93 0.98 0.93 0.82 0.75 0.79 0.79 0.84 0.89
0.43 0.46 0.39 0.34 0.40 0.55 0.37 0.23 0.20 0.21 0.20 0.20 0.25 0.34 0.41 0.51 0.53 0.48 0.53 0.66 0.67 0.64 0.67 0.67 0.63 0.60 0.56 0.54 0.54 0.52 0.50 0.52 0.56 0.61 0.70 0.83 0.92 0.89 0.87 0.85 0.87 0.92 0.98 1.00
0.33 0.48 0.49 0.47 0.55 0.48 0.40 0.33 0.31 0.35 0.36 0.32 0.40 0.38 0.41 0.47 0.49 0.51 0.43 0.46 0.47 0.59 0.60 0.63 0.64 0.69 0.71 0.64 0.67 0.68 0.62 0.64 0.71 0.75 0.80 0.77 0.85 0.94 0.98 0.98 0.97 1.02 1.07 1.07
0.41 0.52 0.64 0.59 0.73 0.74 0.62 0.50 0.44 0.46 0.74 0.55 0.54 0.56 0.57 0.57 0.68 0.75 0.53 0.39 0.41 0.51 0.55 0.62 0.61 0.57 0.64 0.67 0.79 0.85 0.86 0.84 0.90 0.98 1.05 1.06 1.10 1.14 1.12 1.22 1.31 1.34 1.33 1.25
0.85 0.85 0.77 0.76 0.88 0.90 0.71 0.59 0.53 0.89 1.04 0.65 0.63 0.69 0.67 0.70 0.78 0.73 0.61 0.49 0.54 0.48 0.48 0.56 0.66 0.63 0.64 0.70 0.82 0.96 1.04 1.01 1.06 1.13 1.22 1.32 1.41 1.53 1.62 1.75 1.71 1.66 1.65 1.63
0.98 1.09 1.08 1.09 1.22 1.12 0.72 0.69 0.93 1.11 0.88 0.89 0.79 0.73 0.68 0.64 0.69 0.73 0.68 0.61 0.53 0.53 0.51 0.56 0.68 0.67 0.69 0.76 0.86 0.96 1.06 1.16 1.29 1.38 1.50 1.59 1.72 1.76 1.86 2.20 2.24 2.26 2.18 1.94
1.08 1.14 1.14 1.16 1.21 0.95 0.81 0.95 1.00 0.99 1.01 1.05 1.00 0.81 0.73 0.65 0.64 0.69 0.62 0.52 0.44 0.43 0.47 0.52 0.67 0.75 0.74 0.81 1.01 1.20 1.21 1.29 1.45 1.56 1.71 1.83 1.90 2.01 2.15 2.31 2.34 2.35 2.29 2.06
1.13 0.97 1.09 1.18 1.23 1.05 0.92 0.89 0.97 0.96 0.93 0.96 0.94 1.00 1.00 0.85 0.73 0.74 0.66 0.55 0.48 0.45 0.47 0.51 0.63 0.77 0.93 1.02 1.18 1.36 1.36 1.44 1.56 1.66 1.74 1.84 1.94 2.05 2.20 2.35 2.29 2.22 2.15 2.08
1.04 1.11 1.25 1.35 1.29 1.17 1.05 1.02 1.17 1.15 1.04 1.07 1.02 1.05 1.11 0.92 0.75 0.66 0.63 0.62 0.61 0.61 0.62 0.62 0.70 0.86 1.07 1.23 1.34 1.39 1.42 1.56 1.71 1.73 1.80 1.89 1.92 1.94 2.04 2.12 2.21 2.09 2.01 1.97
0.99 1.15 1.33 1.41 1.30 1.40 1.28 1.08 1.17 1.26 1.13 1.20 1.17 1.09 0.91 0.83 0.78 0.70 0.67 0.66 0.66 0.67 0.68 0.70 0.78 0.89 1.05 1.22 1.39 1.49 1.59 1.68 1.79 1.83 1.78 1.85 1.93 1.99 2.03 2.01 1.89 1.80 1.73 1.64